"Pseudo-MPEC" for P10NLPB

Created 2019 May 17 15:07:18 UT using Find_Orb

Click here for an explanation of pseudo-MPECs

 
 Astrometry: 
     P10NLPB  C2019 05 09)R3)5PX=nG-=sPZKEH#u7C]\V9T0=e9IRv8)T/wUn)mOT8w2g4U$F51
     P10NLPB  C2019 05 09qers?(j^umkqAstrometry_t%nK41@=XoLJl^7[mpRXh%QJI5EppF51
     P10NLPB  C2019 05 09UTuredacted;#Zc4'FISpokbP^X\p;GJ6o4qeCK:G_#[_^(bkRX6F51
     P10NLPB KC2019 05 10nbtEclickD`kP%(ymy7$2^js#NU@t.x0V`_]_)=uHYWGL0@chR!,734
     P10NLPB KC2019 05 10BudqP*E8(UoB:,(DI\sq;Psg`9+Nk`[4[E_f)^$19M-T3iRhere]734
     P10NLPB KC2019 05 10KK.f!'for.;tmifS$Ti#mU,Q3qD;%xNH*1tUt:0UKexplanation734

Station data:
(734) Farpoint Observatory, Eskridge  (N38.890107 W96.001400)  US/Kansas.
   Observer G. Hug. 0.69-m reflector + CCD.
(F51) Pan-STARRS 1, Haleakala  (N20.707235 W156.255910)  US/Hawaii.
   Observers N. Primak, A. Schultz, S. Watters, J. Thiel, T. Goggia. Measurer
   PS1 Science Consortium. 1.8-m Ritchey-Chrétien + CCD.

Orbital elements:  P10NLPB
   Perihelion 2020 Jul 13.411416 +/- 391 TT =  9:52:26 (JD 2459043.911416)
Epoch 2019 May 10.0 TT = JDT 2458613.5   Earth MOID: 0.6476   AutoNEOCP
M 196.33591979 +/- 120              (J2000 ecliptic)
n   0.38025032 +/- 0.188            Peri.  239.60053 +/- 55
a   1.88693230 +/- 0.622            Node   153.12758 +/- 48
e   0.1664604 +/- 0.252             Incl.   25.29231 +/- 43
P   2.59/946.73d           H 18.2   G  0.15   U 11.6  SR
q 1.57283277 +/- 1.16    Q 2.20103184 +/- 24.7
From 6 observations 2019 May 9-10 (19.4 hr); mean residual 0".11
Residuals in arcseconds: 
190509 F51  .13+  .04-    190509 F51  .12-  .03+    190510 734  .26-  .05+    
190509 F51  .01-  .00     190510 734  .07+  .01+    190510 734  .20+  .06-    

Ephemerides (geocentric):
Date (UTC) HH   RA              Dec         delta   r     elong  mag " sig PA
---- -- -- --  -------------   -----------  ------ ------ -----  --- ---- ---
2019 05 17 15  15 04 51.941   +25 55 58.55  1.3597 2.1881 134.2 21.5  414  66
2019 05 17 16  15 04 49.250   +25 56 04.16  1.3598 2.1880 134.2 21.5  418  66
2019 05 17 17  15 04 46.560   +25 56 09.72  1.3600 2.1880 134.1 21.5  423  66
2019 05 17 18  15 04 43.871   +25 56 15.22  1.3601 2.1880 134.1 21.5  427  66
2019 05 17 19  15 04 41.183   +25 56 20.67  1.3602 2.1880 134.1 21.5  431  66
2019 05 17 20  15 04 38.497   +25 56 26.07  1.3604 2.1880 134.1 21.5  436  66
2019 05 17 21  15 04 35.811   +25 56 31.42  1.3605 2.1879 134.1 21.5  441  66
2019 05 17 22  15 04 33.127   +25 56 36.72  1.3606 2.1879 134.0 21.5  445  66
2019 05 17 23  15 04 30.443   +25 56 41.96  1.3607 2.1879 134.0 21.5  450  66
2019 05 18 00  15 04 27.761   +25 56 47.15  1.3609 2.1879 134.0 21.5  454  66
2019 05 18 01  15 04 25.080   +25 56 52.29  1.3610 2.1879 134.0 21.5  459  66
2019 05 18 02  15 04 22.400   +25 56 57.37  1.3611 2.1878 134.0 21.5  464  66
2019 05 18 03  15 04 19.721   +25 57 02.41  1.3613 2.1878 133.9 21.5  468  66
2019 05 18 04  15 04 17.043   +25 57 07.39  1.3614 2.1878 133.9 21.5  473  66
2019 05 18 05  15 04 14.366   +25 57 12.32  1.3615 2.1878 133.9 21.5  478  66
2019 05 18 06  15 04 11.691   +25 57 17.19  1.3617 2.1877 133.9 21.5  482  66
2019 05 18 07  15 04 09.017   +25 57 22.02  1.3618 2.1877 133.9 21.5  487  66
2019 05 18 08  15 04 06.344   +25 57 26.79  1.3619 2.1877 133.8 21.5  492  66
2019 05 18 09  15 04 03.672   +25 57 31.51  1.3621 2.1877 133.8 21.5  497  66
2019 05 18 10  15 04 01.001   +25 57 36.18  1.3622 2.1877 133.8 21.5  502  66
2019 05 18 11  15 03 58.331   +25 57 40.79  1.3623 2.1876 133.8 21.5  506  66
2019 05 18 12  15 03 55.663   +25 57 45.36  1.3625 2.1876 133.8 21.5  511  66
2019 05 18 13  15 03 52.996   +25 57 49.87  1.3626 2.1876 133.7 21.5  516  66
2019 05 18 14  15 03 50.330   +25 57 54.33  1.3627 2.1876 133.7 21.5  521  66
2019 05 18 15  15 03 47.665   +25 57 58.73  1.3629 2.1875 133.7 21.5  526  66
2019 05 18 16  15 03 45.002   +25 58 03.09  1.3630 2.1875 133.7 21.5  531  66
2019 05 18 17  15 03 42.339   +25 58 07.39  1.3631 2.1875 133.7 21.5  536  66
2019 05 18 18  15 03 39.678   +25 58 11.64  1.3633 2.1875 133.6 21.5  541  66
2019 05 18 19  15 03 37.018   +25 58 15.84  1.3634 2.1875 133.6 21.5  546  66
2019 05 18 20  15 03 34.360   +25 58 19.99  1.3636 2.1874 133.6 21.5  551  66
2019 05 18 21  15 03 31.702   +25 58 24.08  1.3637 2.1874 133.6 21.5  556  66
2019 05 18 22  15 03 29.046   +25 58 28.12  1.3638 2.1874 133.6 21.5  561  66
2019 05 18 23  15 03 26.391   +25 58 32.12  1.3640 2.1874 133.5 21.5  566  66
2019 05 19 00  15 03 23.737   +25 58 36.05  1.3641 2.1874 133.5 21.5  571  66
2019 05 19 01  15 03 21.085   +25 58 39.94  1.3642 2.1873 133.5 21.5  577  66
2019 05 19 02  15 03 18.434   +25 58 43.77  1.3644 2.1873 133.5 21.5  582  66
2019 05 19 03  15 03 15.784   +25 58 47.56  1.3645 2.1873 133.5 21.5  587  66
2019 05 19 04  15 03 13.135   +25 58 51.29  1.3647 2.1873 133.4 21.5  592  66
2019 05 19 05  15 03 10.488   +25 58 54.97  1.3648 2.1872 133.4 21.5  597  66
2019 05 19 06  15 03 07.842   +25 58 58.59  1.3649 2.1872 133.4 21.5  603  66
2019 05 19 07  15 03 05.197   +25 59 02.17  1.3651 2.1872 133.4 21.5  608  66
2019 05 19 08  15 03 02.553   +25 59 05.69  1.3652 2.1872 133.4 21.5  613  66
2019 05 19 09  15 02 59.911   +25 59 09.16  1.3654 2.1872 133.3 21.5  619  66
2019 05 19 10  15 02 57.270   +25 59 12.58  1.3655 2.1871 133.3 21.5  624  66
2019 05 19 11  15 02 54.631   +25 59 15.95  1.3656 2.1871 133.3 21.5  629  66
2019 05 19 12  15 02 51.993   +25 59 19.26  1.3658 2.1871 133.3 21.5  635  66
2019 05 19 13  15 02 49.356   +25 59 22.53  1.3659 2.1871 133.3 21.5  640  66
2019 05 19 14  15 02 46.720   +25 59 25.74  1.3661 2.1870 133.2 21.5  645  66